WA4ISB-1 Weather Reports


time (UTC)temp
C
wind
direction
speed
KPH
gust
KPH
rain 1hr
cm
rain 24hr
cm
rain mn
cm
humidity
%
barometer
mb
20200531072613 23 282 0.0 0.0 0.00 0.00 0.00 84 1015.1
20200531072228 23 286 0.0 0.0 0.00 0.00 0.00 84 1015.2
20200531072113 23 286 0.0 0.0 0.00 0.00 0.00 84 1015.2
20200531071650 23 94 0.0 1.6 0.00 0.00 0.00 84 1015.3
20200531071613 23 94 0.0 1.6 0.00 0.00 0.00 84 1015.3
20200531071113 23 140 0.0 1.6 0.00 0.00 0.00 84 1015.1
20200531070649 23 132 0.0 1.6 0.00 0.00 0.00 84 1015.4
20200531070615 23 132 0.0 1.6 0.00 0.00 0.00 84 1015.4
20200531070112 23 23 0.0 0.0 0.00 0.00 0.00 84 1015.2
20200531065612 23 23 0.0 0.0 0.00 0.00 0.00 83 1015.3
20200531064659 23 23 0.0 0.0 0.00 0.00 0.00 83 1015.2
20200531064611 23 23 0.0 0.0 0.00 0.00 0.00 83 1015.2
20200531064113 23 23 0.0 0.0 0.00 0.00 0.00 83 1015.2
20200531063702 23 101 0.0 0.0 0.00 0.00 0.00 83 1015.4
20200531063205 23 101 0.0 0.0 0.00 0.00 0.00 83 1015.4
20200531063110 23 101 0.0 0.0 0.00 0.00 0.00 83 1015.4
20200531062610 23 101 0.0 0.0 0.00 0.00 0.00 83 1015.5
20200531061651 23 101 0.0 0.0 0.00 0.00 0.00 82 1015.5
20200531061611 23 101 0.0 0.0 0.00 0.00 0.00 82 1015.5
20200531061110 23 101 0.0 1.6 0.00 0.00 0.00 82 1015.5
20200531055647 23 52 0.0 0.0 0.00 0.00 0.00 82 1015.6
20200531055610 23 52 0.0 0.0 0.00 0.00 0.00 82 1015.6
20200531055108 23 52 0.0 0.0 0.00 0.00 0.00 82 1015.7
20200531054610 23 52 0.0 1.6 0.00 0.00 0.00 82 1015.8
20200531054108 23 237 0.0 0.0 0.00 0.00 0.00 81 1015.9
20200531052106 23 88 0.0 1.6 0.00 0.00 0.00 81 1016.2
20200531050105 24 119 0.0 6.4 0.00 0.00 0.00 81 1016.5
20200531045605 24 146 4.8 6.4 0.00 0.00 0.00 81 1016.5
20200531041602 25 180 0.0 0.0 0.00 0.00 0.00 78 1016.7
20200531035101 25 180 0.0 0.0 0.00 0.00 0.00 77 1016.9
20200531033602 25 82 0.0 0.0 0.00 0.00 0.00 77 1016.9
20200531031059 25 82 0.0 4.8 0.00 0.00 0.00 75 1016.8
20200531030558 25 151 0.0 1.6 0.00 0.00 0.00 76 1016.9
20200531030058 25 198 1.6 3.2 0.00 0.00 0.00 75 1016.8
20200531025558 25 180 3.2 3.2 0.00 0.00 0.00 76 1016.9
20200531025058 25 191 0.0 0.0 0.00 0.00 0.00 75 1016.9
20200531024557 25 191 0.0 0.0 0.00 0.00 0.00 75 1016.9
20200531024404 25 206 1.6 1.6 0.00 0.00 0.00 75 1016.7
20200531024134 25 191 0.0 0.0 0.00 0.00 0.00 75 1016.8
20200531024059 25 191 0.0 0.0 0.00 0.00 0.00 75 1016.8
20200531023556 25 191 0.0 1.6 0.00 0.00 0.00 75 1016.8
20200531023133 25 206 1.6 1.6 0.00 0.00 0.00 75 1016.7
20200531023056 25 206 1.6 1.6 0.00 0.00 0.00 75 1016.7
20200531022934 25 187 0.0 9.7 0.00 0.00 0.00 75 1016.7
20200531022556 25 208 0.0 4.8 0.00 0.00 0.00 75 1016.7
20200531022056 25 172 3.2 4.8 0.00 0.00 0.00 75 1016.8
20200531021555 25 187 0.0 9.7 0.00 0.00 0.00 75 1016.7
20200531020555 25 187 4.8 4.8 0.00 0.00 0.00 75 1016.6
20200531015920 25 168 3.2 8.0 0.00 0.00 0.00 75 1016.4
20200531015555 25 202 1.6 4.8 0.00 0.00 0.00 75 1016.4
20200531015054 25 164 3.2 6.4 0.00 0.00 0.00 75 1016.3
20200531014554 25 168 3.2 8.0 0.00 0.00 0.00 75 1016.4
20200531014053 25 167 4.8 6.4 0.00 0.00 0.00 75 1016.4
20200531013553 25 210 3.2 4.8 0.00 0.00 0.00 75 1016.3
20200531012553 25 123 3.2 6.4 0.00 0.00 0.00 75 1016.3
20200531012300 26 143 4.8 19.3 0.00 0.00 0.00 71 1016.0
20200531012052 25 157 4.8 11.3 0.00 0.00 0.00 74 1016.2
20200531011552 25 189 11.3 17.7 0.00 0.00 0.00 74 1016.2
20200531011139 26 205 3.2 17.7 0.00 0.00 0.00 73 1016.3
20200531011051 26 205 3.2 17.7 0.00 0.00 0.00 73 1016.3
20200531010551 26 133 12.9 20.9 0.00 0.00 0.00 72 1016.2
20200531005551 26 143 4.8 19.3 0.00 0.00 0.00 71 1016.0
20200531005050 27 180 12.9 16.1 0.00 0.00 0.00 69 1015.9
20200531004707 27 171 9.7 16.1 0.00 0.00 0.00 67 1015.8
20200531004550 27 171 9.7 16.1 0.00 0.00 0.00 67 1015.8
20200531003550 28 2 0.0 1.6 0.00 0.00 0.00 68 1015.5
20200531002549 28 348 1.6 4.8 0.00 0.00 0.00 67 1015.3
20200531001638 28 278 0.0 6.4 0.00 0.00 0.00 67 1015.2
20200531001548 28 278 0.0 6.4 0.00 0.00 0.00 67 1015.2
20200531000646 28 295 0.0 4.8 0.00 0.00 0.00 67 1015.0
20200531000548 28 295 0.0 4.8 0.00 0.00 0.00 67 1015.0
20200530234547 28 299 0.0 4.8 0.00 0.00 0.00 66 1014.8
20200530233546 28 327 0.0 6.4 0.00 0.00 0.00 67 1014.7
20200530233046 28 282 1.6 8.0 0.00 0.00 0.00 66 1014.6
20200530232545 28 282 1.6 9.7 0.00 0.00 0.00 66 1014.6
20200530232345 29 324 1.6 4.8 0.00 0.00 0.00 66 1014.4
20200530232045 29 341 1.6 6.4 0.00 0.00 0.00 66 1014.5
20200530231545 29 324 1.6 4.8 0.00 0.00 0.00 66 1014.4
20200530231044 29 350 1.6 11.3 0.00 0.00 0.00 65 1014.2
20200530230544 29 275 3.2 14.5 0.00 0.00 0.00 66 1014.1
20200530225544 29 319 3.2 11.3 0.00 0.00 0.00 66 1013.9
20200530224543 29 333 6.4 11.3 0.00 0.00 0.00 65 1013.7
20200530223544 30 260 4.8 12.9 0.00 0.00 0.00 65 1013.7
20200530223043 30 260 3.2 11.3 0.00 0.00 0.00 65 1013.7
20200530222044 30 127 1.6 16.1 0.00 0.00 0.00 64 1013.7
20200530212538 30 309 1.6 8.0 0.00 0.00 0.00 63 1014.1
20200530212038 30 30 0.0 16.1 0.00 0.00 0.00 62 1014.2
20200530211538 30 309 1.6 11.3 0.00 0.00 0.00 62 1014.2
20200530211037 30 253 0.0 8.0 0.00 0.00 0.00 62 1014.2
20200530210537 30 322 0.0 8.0 0.00 0.00 0.00 62 1014.2
20200530205537 30 307 12.9 14.5 0.00 0.00 0.00 60 1014.3
20200530205038 30 188 0.0 11.3 0.00 0.00 0.00 60 1014.3
20200530204536 30 265 3.2 9.7 0.00 0.00 0.00 59 1014.4
20200530204036 30 241 4.8 14.5 0.00 0.00 0.00 58 1014.5
20200530203535 31 319 3.2 11.3 0.00 0.00 0.00 60 1014.7
20200530203107 31 234 0.0 8.0 0.00 0.00 0.00 60 1014.8
20200530203035 31 234 0.0 8.0 0.00 0.00 0.00 60 1014.8
20200530202610 30 147 1.6 12.9 0.00 0.00 0.00 61 1014.9
20200530202535 30 147 1.6 12.9 0.00 0.00 0.00 61 1014.9
20200530202036 30 19 0.0 9.7 0.00 0.00 0.00 61 1015.0
20200530201034 30 285 4.8 12.9 0.00 0.00 0.00 61 1014.9
20200530200534 30 230 4.8 11.3 0.00 0.00 0.00 61 1014.9
20200530200033 30 175 3.2 14.5 0.00 0.00 0.00 62 1014.9
20200530195533 30 227 4.8 14.5 0.00 0.00 0.00 61 1014.8
20200530195247 31 323 4.8 9.7 0.00 0.00 0.00 58 1015.1
20200530195034 30 302 6.4 12.9 0.00 0.00 0.00 60 1014.9
20200530194605 31 198 0.0 16.1 0.00 0.00 0.00 60 1015.0
20200530194532 31 198 0.0 16.1 0.00 0.00 0.00 60 1015.0
20200530193606 31 291 4.8 12.9 0.00 0.00 0.00 58 1015.0
20200530193532 31 291 4.8 12.9 0.00 0.00 0.00 58 1015.0
20200530192604 31 300 3.2 14.5 0.00 0.00 0.00 57 1015.1
20200530192531 31 300 3.2 14.5 0.00 0.00 0.00 57 1015.1
20200530192032 31 302 4.8 12.9 0.00 0.00 0.00 56 1015.1
20200530191531 31 260 6.4 14.5 0.00 0.00 0.00 56 1015.2
20200530190530 31 323 4.8 9.7 0.00 0.00 0.00 58 1015.1
20200530185529 31 322 3.2 14.5 0.00 0.00 0.00 58 1015.1
20200530185029 31 253 0.0 6.4 0.00 0.00 0.00 59 1015.1
20200530184529 31 298 1.6 9.7 0.00 0.00 0.00 59 1015.2
20200530183530 31 305 0.0 11.3 0.00 0.00 0.00 57 1015.4
20200530183028 31 291 3.2 9.7 0.00 0.00 0.00 59 1015.4
20200530180527 31 229 0.0 8.0 0.00 0.00 0.00 61 1015.5
20200530180026 31 271 1.6 6.4 0.00 0.00 0.00 59 1015.5
20200530175526 31 250 1.6 8.0 0.00 0.00 0.00 59 1015.7
20200530174525 31 219 0.0 11.3 0.00 0.00 0.00 59 1015.8
20200530174026 31 262 0.0 12.9 0.00 0.00 0.00 59 1016.0
20200530173525 31 217 0.0 11.3 0.00 0.00 0.00 58 1016.0
20200530162521 30 265 0.0 6.4 0.00 0.00 0.00 62 1016.4
20200530162021 31 246 0.0 6.4 0.00 0.00 0.00 62 1016.3
20200530161520 31 248 0.0 6.4 0.00 0.00 0.00 62 1016.3
20200530161020 31 284 3.2 9.7 0.00 0.00 0.00 62 1016.4
20200530160023 30 281 0.0 3.2 0.00 0.00 0.00 62 1016.4
20200530155019 30 241 0.0 8.0 0.00 0.00 0.00 63 1016.4
20200530154519 30 319 4.8 4.8 0.00 0.00 0.00 63 1016.4
20200530154018 30 261 0.0 11.3 0.00 0.00 0.00 63 1016.5
20200530153518 30 282 0.0 6.4 0.00 0.00 0.00 62 1016.4
20200530153018 30 255 0.0 9.7 0.00 0.00 0.00 64 1016.5
20200530152017 30 307 4.8 8.0 0.00 0.00 0.00 63 1016.5
20200530151517 30 164 0.0 6.4 0.00 0.00 0.00 63 1016.4
20200530150516 30 319 3.2 6.4 0.00 0.00 0.00 64 1016.6
20200530150017 30 201 0.0 8.0 0.00 0.00 0.00 66 1016.6
20200530145517 30 203 0.0 6.4 0.00 0.00 0.00 66 1016.6
20200530144016 29 163 0.0 3.2 0.00 0.00 0.00 66 1016.6
20200530143514 29 225 0.0 9.7 0.00 0.00 0.00 66 1016.5
20200530143014 29 205 6.4 9.7 0.00 0.00 0.00 65 1016.6
20200530142157 28 171 0.0 9.7 0.00 0.00 0.00 69 1016.7
20200530142018 29 239 0.0 0.0 0.00 0.00 0.00 66 1016.6
20200530141514 28 262 0.0 3.2 0.00 0.00 0.00 67 1016.6
20200530140514 28 161 6.4 8.0 0.00 0.00 0.00 66 1016.6
20200530134512 28 171 0.0 9.7 0.00 0.00 0.00 69 1016.7
20200530133010 27 158 0.0 8.0 0.00 0.00 0.00 73 1016.7
20200530131510 27 199 4.8 8.0 0.00 0.00 0.00 75 1016.7
20200530131009 26 182 3.2 8.0 0.00 0.00 0.00 76 1016.6
20200530130509 26 130 3.2 6.4 0.00 0.00 0.00 77 1016.6
20200530130056 26 149 3.2 4.8 0.00 0.00 0.00 78 1016.7
20200530130009 26 149 3.2 4.8 0.00 0.00 0.00 78 1016.7
20200530125508 26 205 3.2 6.4 0.00 0.00 0.00 78 1016.6
20200530125008 26 181 0.0 3.2 0.00 0.00 0.00 80 1016.6
20200530124731 23 147 0.0 0.0 0.00 0.00 0.00 87 1016.7
20200530124008 25 206 3.2 6.4 0.00 0.00 0.00 82 1016.7
20200530123507 25 192 1.6 4.8 0.00 0.00 0.00 82 1016.7
20200530123008 25 203 3.2 6.4 0.00 0.00 0.00 82 1016.7
20200530122507 25 184 1.6 6.4 0.00 0.00 0.00 84 1016.6
20200530121506 24 126 0.0 3.2 0.00 0.00 0.00 85 1016.7
20200530121008 24 178 3.2 3.2 0.00 0.00 0.00 86 1016.7
20200530120505 24 147 0.0 0.0 0.00 0.00 0.00 87 1016.6
20200530120008 23 147 0.0 0.0 0.00 0.00 0.00 87 1016.7
20200530115505 23 147 0.0 0.0 0.00 0.00 0.00 87 1016.7
20200530114504 23 147 0.0 3.2 0.00 0.00 0.00 88 1016.7
20200530113507 23 144 0.0 3.2 0.00 0.00 0.00 89 1016.6
20200530113504 23 144 0.0 3.2 0.00 0.00 0.00 89 1016.6
20200530113005 23 78 0.0 0.0 0.00 0.00 0.00 89 1016.6
20200530112004 23 78 0.0 0.0 0.00 0.00 0.00 90 1016.5
20200530111503 22 78 0.0 0.0 0.00 0.00 0.00 90 1016.4
20200530110003 22 78 0.0 0.0 0.00 0.00 0.00 89 1016.4
20200530105502 22 78 0.0 0.0 0.00 0.00 0.00 89 1016.4
20200530105001 22 78 0.0 0.0 0.00 0.00 0.00 89 1016.3
20200530104001 22 78 0.0 0.0 0.00 0.00 0.00 89 1016.4
20200530103000 22 78 0.0 0.0 0.00 0.00 0.00 89 1016.4
20200530102906 23 78 0.0 0.0 0.00 0.00 0.00 89 1016.2
20200530101505 23 78 0.0 0.0 0.00 0.00 0.00 89 1016.3
20200530101459 23 78 0.0 0.0 0.00 0.00 0.00 89 1016.3
20200530100959 23 78 0.0 0.0 0.00 0.00 0.00 89 1016.2
20200530100001 23 170 0.0 0.0 0.00 0.00 0.00 89 1016.1
20200530095958 23 170 0.0 0.0 0.00 0.00 0.00 89 1016.1
20200530095458 23 170 0.0 0.0 0.00 0.00 0.00 89 1016.0
20200530094457 23 170 0.0 0.0 0.00 0.00 0.00 89 1015.8
20200530093957 23 170 0.0 3.2 0.00 0.00 0.00 88 1015.8
20200530093847 23 29 0.0 0.0 0.00 0.00 0.00 87 1015.6
20200530093457 23 29 0.0 0.0 0.00 0.00 0.00 88 1015.7
20200530092956 23 29 0.0 0.0 0.00 0.00 0.00 88 1015.8
20200530092456 23 29 0.0 0.0 0.00 0.00 0.00 88 1015.6
20200530091957 23 29 0.0 0.0 0.00 0.00 0.00 88 1015.6
20200530091456 23 29 0.0 0.0 0.00 0.00 0.00 88 1015.6
20200530090955 23 29 0.0 0.0 0.00 0.00 0.00 88 1015.6
20200530090455 23 29 0.0 0.0 0.00 0.00 0.00 88 1015.5
20200530085955 23 29 0.0 0.0 0.00 0.00 0.00 88 1015.5
20200530085454 23 29 0.0 0.0 0.00 0.00 0.00 88 1015.5
20200530084955 23 29 0.0 0.0 0.00 0.00 0.00 87 1015.7
20200530083953 23 29 0.0 0.0 0.00 0.00 0.00 87 1015.6
20200530083453 23 29 0.0 0.0 0.00 0.00 0.00 87 1015.7
20200530082953 23 29 0.0 0.0 0.00 0.00 0.00 87 1015.6
20200530082454 23 29 0.0 0.0 0.00 0.00 0.00 87 1015.7
20200530081952 23 29 0.0 0.0 0.00 0.00 0.00 87 1015.7
20200530081452 23 29 0.0 0.0 0.00 0.00 0.00 86 1015.7
20200530080954 23 29 0.0 0.0 0.00 0.00 0.00 86 1015.6
20200530080952 23 29 0.0 0.0 0.00 0.00 0.00 86 1015.6
20200530080451 23 29 0.0 0.0 0.00 0.00 0.00 86 1015.8
20200530075952 23 35 0.0 0.0 0.00 0.00 0.00 86 1015.7
20200530075451 23 21 0.0 3.2 0.00 0.00 0.00 86 1015.7
20200530074951 23 39 1.6 3.2 0.00 0.00 0.00 86 1015.7
20200530074450 23 61 0.0 0.0 0.00 0.00 0.00 86 1015.9
20200530073950 23 61 0.0 0.0 0.00 0.00 0.00 86 1015.9
20200530073450 23 61 0.0 0.0 0.00 0.00 0.00 85 1016.1